Location: Morgantown
(40.9734°N, 80.6323°W)
Time: 00:22:09
(UTC+00:00)

Cosmos 2297 Rocket - Pass Details

Date: 29 October 2020
Orbit: 838 x 844 km, 71.0° (Epoch: 02 December)

Event Time Altitude Azimuth Distance (km) Brightness Sun altitude
Rises 22:36:45 0° 342° (NNW) 3,412 5.4 -3.6°
Reaches altitude 10° 22:39:22 10° 350° (N) 2,473 4.6 -4.1°
Maximum altitude 22:44:42 41° 60° (ENE) 1,212 2.6 -5.1°
Drops below altitude 10° 22:50:00 10° 129° (SE) 2,457 4.3 -6.0°
Sets 22:52:35 0° 137° (SE) 3,388 5.0 -6.5°
